Location: Newark
(48.1500°N, 80.0333°W)
Time: 20:45:49
(UTC+00:00)

ISS - Visible Passes

Search period start: 23 January 2021 00:00
Search period end: 02 February 2021 00:00
Orbit: 418 x 421 km, 51.6° (Epoch: 24 January)

Date Brightness Start Highest point End Pass type
(mag) Time Alt. Az. Time Alt. Az. Time Alt. Az.
23 Jan -3.6 23:08:01 10° SW 23:11:23 64° SSE 23:13:44 18° ENE visible
24 Jan -1.5 00:45:01 10° W 00:46:42 25° WNW 00:46:42 25° WNW visible
24 Jan -3.5 23:57:32 10° W 00:00:52 55° NNW 00:01:19 50° NNE visible
25 Jan -3.6 23:10:04 10° WSW 23:13:26 69° NNW 23:15:53 17° ENE visible
26 Jan -1.5 00:47:18 10° WNW 00:48:52 23° WNW 00:48:52 23° WNW visible
26 Jan -3.2 23:59:48 10° WNW 00:03:05 44° N 00:03:25 42° NNE visible
27 Jan -3.2 23:12:18 10° W 23:15:35 48° N 23:17:58 17° ENE visible
28 Jan -1.5 00:49:25 10° WNW 00:50:56 24° WNW 00:50:56 24° WNW visible
29 Jan -3.3 00:01:59 10° WNW 00:05:16 47° N 00:05:30 46° NNE visible
29 Jan -3.1 23:14:30 10° WNW 23:17:46 44° N 23:20:05 17° ENE visible
30 Jan -1.6 00:51:25 10° WNW 00:53:03 26° WNW 00:53:03 26° WNW visible
31 Jan -3.8 00:04:00 10° WNW 00:07:22 65° NNE 00:07:40 61° NE visible
31 Jan -3.5 23:16:32 10° WNW 23:19:52 53° NNE 23:22:20 17° E visible
01 Feb -1.7 00:53:25 10° WNW 00:55:19 28° W 00:55:19 28° W visible
